Location: Bats
(43.6587°N, 0.4584°W)
Time: 09:48:37
(UTC+00:00)

ATLAS 3B R/B - Pass Details

Date: 12 January 2026
Orbit: 936 x 1257 km, 63.8° (Epoch: 17 February)

Event Time Altitude Azimuth Distance (km) Brightness Sun altitude
Rises 17:42:40 0° 263° (W) 4,103 7.6 -10.0°
Reaches altitude 10° 17:45:56 10° 276° (W) 3,178 6.3 -10.5°
Maximum altitude 17:52:16 27° 331° (NNW) 2,216 4.5 -11.6°
Drops below altitude 10° 17:58:45 10° 26° (NNE) 3,247 4.8 -12.7°
Enters shadow 18:00:07 - 32° (NNE) 3,617 5.0 -12.9°
